When you browse on this site, cookies collect data to enhance your experience and personalize the content and advertising you see.
Visit our Privacy Policy to learn more. By continuing to use the site, you agree to this use of cookies and data.
  • In Österreich
  • Länderverzeichnis
  • Für 7 Tage
  • Wassertemperatur
  • Satellitenkarten
  • Wetterkarte
  • News
  • Widgets
  • user-avatar
    Anmelden

    Stündliche Wetter Cegielsko

    Heute, 17 Februar, Sonntag

    Zeit Temperatur Niederschläge Wind Luftdruck Luftfeuchtigkeit
    00:00 +4°C° 0 mm 3 m/S 761 mmHg 78%
    01:00 +4°C° 0 mm 3 m/S 761 mmHg 80%
    02:00 +4°C° 0 mm 3 m/S 761 mmHg 82%
    03:00 +3°C° 0 mm 3 m/S 761 mmHg 84%
    04:00 +3°C° 0 mm 3 m/S 761 mmHg 86%
    05:00 +2°C° 0 mm 3 m/S 761 mmHg 87%
    06:00 +2°C° 0 mm 3 m/S 761 mmHg 88%
    07:00 +3°C° 0 mm 2 m/S 761 mmHg 89%
    08:00 +3°C° 0 mm 3 m/S 761 mmHg 84%
    09:00 +4°C° 0 mm 3 m/S 761 mmHg 79%
    10:00 +7°C° 0 mm 3 m/S 762 mmHg 74%
    11:00 +8°C° 0 mm 3 m/S 761 mmHg 69%
    12:00 +9°C° 0 mm 2 m/S 761 mmHg 64%
    13:00 +12°C° 0 mm 2 m/S 761 mmHg 59%
    14:00 +12°C° 0 mm 2 m/S 761 mmHg 60%
    15:00 +11°C° 0 mm 1 m/S 761 mmHg 61%
    16:00 +11°C° 0 mm 1 m/S 760 mmHg 62%
    17:00 +10°C° 0 mm 1 m/S 760 mmHg 66%
    18:00 +9°C° 0 mm 1 m/S 760 mmHg 69%
    19:00 +8°C° 0 mm 1 m/S 760 mmHg 72%
    20:00 +8°C° 0 mm 1 m/S 760 mmHg 73%
    21:00 +7°C° 0 mm 1 m/S 760 mmHg 74%
    22:00 +7°C° 0 mm 1 m/S 760 mmHg 75%
    23:00 +6°C° 0 mm 1 m/S 760 mmHg 76%

    Morgen, 18 Februar, Montag

    Zeit Temperatur Niederschläge Wind Luftdruck Luftfeuchtigkeit
    00:00 +5°C° 0 mm 2 m/S 760 mmHg 77%
    01:00 +5°C° 0 mm 2 m/S 760 mmHg 78%
    02:00 +4°C° 0 mm 2 m/S 760 mmHg 77%
    03:00 +4°C° 0 mm 2 m/S 759 mmHg 76%
    04:00 +4°C° 0 mm 2 m/S 759 mmHg 75%
    05:00 +3°C° 0 mm 2 m/S 759 mmHg 75%
    06:00 +3°C° 0 mm 2 m/S 759 mmHg 75%
    07:00 +3°C° 0 mm 2 m/S 759 mmHg 75%
    08:00 +4°C° 0 mm 2 m/S 759 mmHg 70%
    09:00 +5°C° 0 mm 2 m/S 759 mmHg 65%
    10:00 +7°C° 0 mm 2 m/S 759 mmHg 60%
    11:00 +8°C° 0 mm 2 m/S 759 mmHg 56%
    12:00 +9°C° 0 mm 2 m/S 758 mmHg 51%
    13:00 +12°C° 0 mm 2 m/S 758 mmHg 46%
    14:00 +12°C° 0 mm 2 m/S 758 mmHg 48%
    15:00 +12°C° 0 mm 2 m/S 758 mmHg 50%
    16:00 +12°C° 0 mm 2 m/S 757 mmHg 51%
    17:00 +9°C° 0 mm 2 m/S 757 mmHg 54%
    18:00 +8°C° 0 mm 2 m/S 757 mmHg 57%
    19:00 +7°C° 0 mm 2 m/S 757 mmHg 60%
    20:00 +6°C° 0 mm 2 m/S 757 mmHg 63%
    21:00 +6°C° 0 mm 2 m/S 757 mmHg 66%
    22:00 +5°C° 0 mm 2 m/S 757 mmHg 68%
    23:00 +5°C° 0 mm 2 m/S 757 mmHg 68%

    übermorgen, 19 Februar, Dienstag

    Zeit Temperatur Niederschläge Wind Luftdruck Luftfeuchtigkeit
    00:00 +3°C° 0 mm 3 m/S 757 mmHg 68%
    01:00 +3°C° 0 mm 3 m/S 757 mmHg 67%
    02:00 +3°C° 0 mm 3 m/S 756 mmHg 70%
    03:00 +3°C° 0 mm 3 m/S 756 mmHg 72%
    04:00 +2°C° 0 mm 3 m/S 756 mmHg 75%
    05:00 +2°C° 0 mm 3 m/S 755 mmHg 76%
    06:00 +2°C° 0 mm 3 m/S 755 mmHg 78%
    07:00 +2°C° 0 mm 3 m/S 755 mmHg 79%
    08:00 +3°C° 0 mm 4 m/S 755 mmHg 73%
    09:00 +5°C° 0 mm 4 m/S 755 mmHg 66%
    10:00 +6°C° 0 mm 5 m/S 755 mmHg 59%
    11:00 +8°C° 0 mm 5 m/S 755 mmHg 56%
    12:00 +9°C° 0 mm 5 m/S 755 mmHg 53%
    13:00 +10°C° 0 mm 5 m/S 755 mmHg 50%
    14:00 +10°C° 0 mm 5 m/S 754 mmHg 53%
    15:00 +10°C° 0 mm 5 m/S 754 mmHg 57%
    16:00 +11°C° 0 mm 4 m/S 754 mmHg 60%
    17:00 +9°C° 0.1 mm 5 m/S 755 mmHg 67%
    18:00 +7°C° 0.1 mm 5 m/S 755 mmHg 74%
    19:00 +6°C° 0.1 mm 5 m/S 755 mmHg 82%
    20:00 +6°C° 0 mm 5 m/S 756 mmHg 83%
    21:00 +6°C° 0 mm 4 m/S 756 mmHg 84%
    22:00 +5°C° 0 mm 4 m/S 757 mmHg 85%
    23:00 +5°C° 0 mm 4 m/S 757 mmHg 86%

    20 Februar, Mittwoch

    Zeit Temperatur Niederschläge Wind Luftdruck Luftfeuchtigkeit
    00:00 +4°C° 0 mm 4 m/S 757 mmHg 87%
    01:00 +4°C° 0 mm 4 m/S 757 mmHg 88%
    02:00 +3°C° 0 mm 4 m/S 757 mmHg 89%
    03:00 +3°C° 0 mm 4 m/S 757 mmHg 91%
    04:00 +3°C° 0 mm 4 m/S 757 mmHg 92%
    05:00 +1°C° 0 mm 4 m/S 757 mmHg 92%
    06:00 +1°C° 0 mm 4 m/S 758 mmHg 93%
    07:00 +1°C° 0 mm 4 m/S 758 mmHg 93%
    08:00 +2°C° 0 mm 5 m/S 758 mmHg 88%
    09:00 +3°C° 0 mm 5 m/S 759 mmHg 83%
    10:00 +4°C° 0 mm 6 m/S 759 mmHg 79%
    11:00 +5°C° 0 mm 6 m/S 759 mmHg 73%
    12:00 +5°C° 0 mm 6 m/S 759 mmHg 68%
    13:00 +7°C° 0 mm 6 m/S 759 mmHg 63%
    14:00 +7°C° 0 mm 5 m/S 759 mmHg 64%
    15:00 +7°C° 0 mm 5 m/S 759 mmHg 65%
    16:00 +8°C° 0 mm 4 m/S 759 mmHg 65%
    17:00 +7°C° 0 mm 4 m/S 759 mmHg 69%
    18:00 +6°C° 0 mm 4 m/S 759 mmHg 72%
    19:00 +7°C° 0 mm 3 m/S 759 mmHg 76%
    20:00 +5°C° 0 mm 3 m/S 760 mmHg 77%
    21:00 +5°C° 0 mm 3 m/S 760 mmHg 79%
    22:00 +5°C° 0 mm 3 m/S 760 mmHg 80%
    23:00 +4°C° 0 mm 3 m/S 760 mmHg 82%

    21 Februar, Donnerstag

    Zeit Temperatur Niederschläge Wind Luftdruck Luftfeuchtigkeit
    00:00 +4°C° 0 mm 3 m/S 760 mmHg 83%
    01:00 +4°C° 0 mm 3 m/S 760 mmHg 84%
    02:00 +4°C° 0.1 mm 3 m/S 759 mmHg 84%
    03:00 +4°C° 0.1 mm 3 m/S 759 mmHg 84%
    04:00 +4°C° 0.1 mm 3 m/S 759 mmHg 84%
    05:00 +4°C° 0 mm 4 m/S 759 mmHg 85%
    06:00 +4°C° 0 mm 4 m/S 759 mmHg 86%
    07:00 +4°C° 0 mm 4 m/S 758 mmHg 87%
    08:00 +3°C° 0 mm 5 m/S 758 mmHg 84%
    09:00 +5°C° 0 mm 5 m/S 758 mmHg 81%
    10:00 +5°C° 0 mm 6 m/S 758 mmHg 78%
    11:00 +5°C° 0.4 mm 6 m/S 758 mmHg 79%
    12:00 +5°C° 0.4 mm 6 m/S 758 mmHg 80%
    13:00 +5°C° 0.4 mm 6 m/S 758 mmHg 81%
    14:00 +5°C° 0.1 mm 6 m/S 758 mmHg 82%
    15:00 +7°C° 0.1 mm 5 m/S 758 mmHg 84%
    16:00 +7°C° 0.1 mm 5 m/S 758 mmHg 85%
    17:00 +7°C° 0.4 mm 5 m/S 758 mmHg 86%
    18:00 +6°C° 0.4 mm 5 m/S 758 mmHg 87%
    19:00 +6°C° 0.4 mm 5 m/S 759 mmHg 88%
    20:00 +6°C° 0 mm 5 m/S 759 mmHg 88%
    21:00 +6°C° 0 mm 5 m/S 759 mmHg 88%
    22:00 +6°C° 0 mm 4 m/S 759 mmHg 88%
    23:00 +6°C° 0.1 mm 5 m/S 759 mmHg 88%

    22 Februar, Freitag

    Zeit Temperatur Niederschläge Wind Luftdruck Luftfeuchtigkeit
    00:00 +6°C° 0.1 mm 5 m/S 759 mmHg 88%
    01:00 +6°C° 0.1 mm 5 m/S 759 mmHg 88%
    02:00 +6°C° 0.5 mm 5 m/S 759 mmHg 88%
    03:00 +5°C° 0.5 mm 6 m/S 759 mmHg 88%
    04:00 +5°C° 0.5 mm 6 m/S 759 mmHg 88%
    05:00 +4°C° 0.2 mm 6 m/S 759 mmHg 87%
    06:00 +4°C° 0.2 mm 6 m/S 760 mmHg 86%
    07:00 +4°C° 0.2 mm 6 m/S 760 mmHg 86%
    08:00 +4°C° 0.1 mm 6 m/S 761 mmHg 83%
    09:00 +4°C° 0.1 mm 6 m/S 762 mmHg 81%
    10:00 +3°C° 0.1 mm 6 m/S 763 mmHg 78%
    11:00 +3°C° 0 mm 6 m/S 764 mmHg 75%
    12:00 +2°C° 0 mm 6 m/S 765 mmHg 71%
    13:00 +2°C° 0 mm 6 m/S 766 mmHg 68%
    14:00 +2°C° 0 mm 5 m/S 766 mmHg 67%
    15:00 +1°C° 0 mm 5 m/S 767 mmHg 66%
    16:00 +1°C° 0 mm 5 m/S 768 mmHg 65%
    17:00 0°C° 0 mm 4 m/S 769 mmHg 66%
    18:00 -1°C° 0 mm 4 m/S 770 mmHg 67%
    19:00 0°C° 0 mm 3 m/S 771 mmHg 69%
    20:00 -1°C° 0 mm 3 m/S 771 mmHg 68%
    21:00 -2°C° 0 mm 4 m/S 772 mmHg 66%
    22:00 -3°C° 0 mm 4 m/S 773 mmHg 65%
    23:00 -3°C° 0 mm 4 m/S 773 mmHg 62%
    Mehr zeigen